TimeCST,TemperatureF,Dew PointF,Humidity,Sea Level PressureIn,VisibilityMPH,Wind Direction,Wind SpeedMPH,Gust SpeedMPH,PrecipitationIn,Events,Conditions,WindDirDegrees,DateUTC
12:53 AM,59.0,52.0,78,30.18,10.0,Calm,Calm,-,N/A,,Overcast,0,2012-11-20 06:53:00
1:33 AM,59.0,51.8,77,30.18,10.0,Calm,Calm,-,N/A,,Overcast,0,2012-11-20 07:33:00
2:53 AM,59.0,52.0,78,30.17,10.0,NE,3.5,-,N/A,,Overcast,40,2012-11-20 08:53:00
3:53 AM,57.9,53.1,84,30.17,10.0,Calm,Calm,-,N/A,,Overcast,0,2012-11-20 09:53:00
4:53 AM,55.9,52.0,87,30.17,10.0,North,3.5,-,N/A,,Mostly Cloudy,10,2012-11-20 10:53:00
5:53 AM,53.1,50.0,89,30.18,10.0,NNW,4.6,-,N/A,,Partly Cloudy,340,2012-11-20 11:53:00
6:53 AM,55.0,52.0,89,30.20,10.0,NNW,3.5,-,N/A,,Mostly Cloudy,330,2012-11-20 12:53:00
7:34 AM,60.8,53.6,77,30.21,10.0,North,3.5,-,N/A,,Mostly Cloudy,10,2012-11-20 13:34:00
7:53 AM,60.1,53.1,78,30.21,10.0,Calm,Calm,-,N/A,,Mostly Cloudy,0,2012-11-20 13:53:00
8:01 AM,60.8,53.6,77,30.21,10.0,Calm,Calm,-,N/A,,Scattered Clouds,0,2012-11-20 14:01:00
8:25 AM,62.6,53.6,72,30.22,10.0,North,3.5,-,N/A,,Mostly Cloudy,10,2012-11-20 14:25:00
8:53 AM,63.0,54.0,72,30.21,10.0,Calm,Calm,-,N/A,,Overcast,0,2012-11-20 14:53:00
9:53 AM,66.9,52.0,59,30.21,10.0,Variable,4.6,-,N/A,,Partly Cloudy,0,2012-11-20 15:53:00
10:53 AM,68.0,50.0,52,30.18,10.0,NNW,6.9,-,N/A,,Mostly Cloudy,340,2012-11-20 16:53:00
11:53 AM,66.9,50.0,54,30.15,10.0,NNW,6.9,-,N/A,,Mostly Cloudy,330,2012-11-20 17:53:00
12:53 PM,69.1,50.0,51,30.12,10.0,NNW,9.2,-,N/A,,Scattered Clouds,330,2012-11-20 18:53:00
1:53 PM,68.0,51.1,55,30.11,10.0,North,6.9,-,N/A,,Mostly Cloudy,360,2012-11-20 19:53:00
2:53 PM,64.9,51.1,61,30.11,10.0,North,8.1,-,N/A,,Overcast,10,2012-11-20 20:53:00
3:53 PM,62.1,54.0,75,30.11,10.0,North,4.6,-,0.00,,Overcast,350,2012-11-20 21:53:00
4:53 PM,61.0,54.0,78,30.12,10.0,NW,5.8,-,N/A,,Overcast,320,2012-11-20 22:53:00
5:53 PM,59.0,54.0,83,30.13,10.0,NW,4.6,-,N/A,,Mostly Cloudy,310,2012-11-20 23:53:00
6:53 PM,57.9,54.0,87,30.14,10.0,NW,4.6,-,N/A,,Mostly Cloudy,320,2012-11-21 00:53:00
7:53 PM,57.0,54.0,89,30.15,10.0,WNW,4.6,-,N/A,,Mostly Cloudy,300,2012-11-21 01:53:00
8:53 PM,53.1,51.1,93,30.15,6.0,Calm,Calm,-,N/A,,Scattered Clouds,0,2012-11-21 02:53:00
9:53 PM,54.0,52.0,93,30.15,8.0,NW,4.6,-,N/A,,Mostly Cloudy,310,2012-11-21 03:53:00
10:53 PM,54.0,51.1,90,30.15,9.0,NW,3.5,-,N/A,,Overcast,320,2012-11-21 04:53:00
11:53 PM,51.1,50.0,96,30.15,5.0,NNW,5.8,-,N/A,,Clear,330,2012-11-21 05:53:00